Location: Unspecified
(0.0000°N, 0.0000°E)
Time: 22:31:27
(UTC+00:00)

S-56A Canister/Altair - Pass Details

Date: 06 October 2020
Orbit: 633 x 2499 km, 38.9° (Epoch: 27 October)

Event Time Altitude Azimuth Distance (km) Brightness Sun altitude
Rises 19:22:01 0° 321° (NW) 5,716 12.4 -23.4°
Reaches altitude 10° 19:26:24 10° 327° (NNW) 4,466 11.7 -24.5°
Maximum altitude 19:37:17 46° 36° (NE) 1,944 9.2 -27.2°
Enters shadow 19:38:10 45° 51° (NE) 1,917 9.1 -27.4°
Drops below altitude 10° 19:44:36 10° 107° (ESE) 3,049 - -29.0°
Sets 19:47:02 0° 114° (ESE) 3,798 - -29.6°
